1530961200.39,1136,21.19,74140.5,28.27,0.25,-2.55,0,*6F
1530961201.61,1137,21.19,74142.3,28.27,0.13,-2.67,0,*6A
1530961202.84,1138,21.25,74144.3,28.29,0.33,-2.51,0,*6C
1530961204.07,1139,21.19,74140.0,28.29,0.25,-2.63,0,*6B
1530961205.25,1140,21.19,74140.3,28.29,-0.19,-3.11,0,*43
1530961206.5,1141,21.19,74142.3,28.29,-1.05,-4.01,0,*78
1530961207.68,1142,21.19,74140.5,28.29,-1.51,-4.57,0,*79
1530961208.87,1143,21.19,74142.5,28.27,-3.11,-6.13,0,*72
1530961210.06,1144,21.25,74146.5,28.27,-0.61,-3.43,0,*41
1530961211.28,1145,21.25,74144.5,28.23,0.75,-2.03,0,*69
1530961212.47,1146,21.19,74142.0,28.27,0.33,-2.35,0,*69
1530961213.64,1147,21.19,74140.3,28.29,0.43,-2.43,0,*60
1530961214.81,1148,21.25,74142.3,28.29,0.43,-2.35,0,*6E
1530961215.98,1149,21.25,74144.3,28.29,-0.29,-3.15,0,*4D
1530961217.23,1150,21.25,74142.0,28.31,0.51,-2.11,0,*6B
1530961218.47,1151,21.25,74142.3,28.31,1.09,-1.63,0,*50
1530961219.71,1152,21.25,74144.3,28.33,0.87,-1.83,0,*68
1530961220.93,1153,21.25,74140.8,28.35,0.25,-2.39,0,*65
1530961222.2,1154,21.25,74146.3,28.35,1.09,-1.39,0,*5E
1530961223.4,1155,21.25,74144.8,28.37,1.97,-0.65,0,*62
1530961224.61,1156,21.19,74142.0,28.41,1.47,-1.29,0,*54
1530961225.84,1157,21.25,74144.3,28.41,0.63,-2.07,0,*6D
1530961227.08,1158,21.19,74140.5,28.43,1.17,-1.55,0,*56
1530961228.31,1159,21.25,74142.3,28.45,0.91,-1.99,0,*6E
1530961229.54,1160,21.19,74140.0,28.45,0.83,-2.03,0,*67
1530961230.76,1161,21.19,74142.0,28.45,-0.89,-3.67,0,*42
1530961231.97,1162,21.25,74142.3,28.45,-0.65,-3.51,0,*46
1530961233.2,1163,21.25,74142.8,28.45,0.91,-1.87,0,*68
1530961234.45,1164,21.19,74140.5,28.47,1.55,-1.01,0,*5A
1530961235.67,1165,21.19,74142.5,28.51,0.97,-1.71,0,*64
1530961236.89,1166,21.25,74142.5,28.51,0.33,-2.35,0,*6A
1530961238.09,1167,21.25,74140.5,28.53,-0.27,-3.03,0,*45
1530961239.29,1168,21.19,74138.8,28.53,0.71,-1.79,0,*6B
1530961240.49,1169,21.25,74144.8,28.55,1.01,-1.63,0,*51
1530961241.7,1170,21.19,74142.5,28.57,-0.89,-3.75,0,*42
1530961242.91,1171,21.25,74146.0,28.53,-3.31,-6.27,0,*75
1530961244.13,1172,21.25,74142.3,28.53,-2.75,-5.51,0,*75
1530961245.37,1173,21.25,74146.3,28.51,-2.19,-5.11,0,*78
1530961246.6,1174,21.25,74142.3,28.47,-1.47,-4.17,0,*77
1530961247.83,1175,21.25,74144.3,28.47,-3.59,-6.89,0,*7E
1530961249.05,1176,21.25,74140.3,28.41,-3.71,-6.47,0,*73
1530961250.26,1177,21.25,74142.8,28.39,-3.03,-5.97,0,*76
1530961251.49,1178,21.25,74144.5,28.35,-4.29,-7.05,0,*73
1530961252.73,1179,21.19,74140.0,28.35,-2.55,-5.35,0,*7E
1530961253.97,1180,21.25,74144.8,28.33,-1.95,-4.69,0,*79
1530961255.21,1181,21.25,74144.5,28.33,-1.95,-4.73,0,*73
1530961256.47,1182,21.25,74142.0,28.31,-4.81,-7.77,0,*75
1530961257.69,1183,21.25,74140.5,28.27,-5.89,-8.81,0,*7C
1530961258.94,1184,21.25,74144.5,28.21,-2.11,-4.65,0,*7D
1530961260.17,1185,21.25,74142.3,28.21,-1.83,-4.61,0,*70
1530961261.41,1186,21.25,74142.0,28.21,-2.43,-5.07,0,*7D
1530961262.65,1187,21.25,74144.3,28.21,-2.31,-4.93,0,*75
1530961263.87,1188,21.25,74142.8,28.21,-2.95,-5.55,0,*7F
1530961265.09,1189,21.25,74146.3,28.19,-0.93,-3.43,0,*40
1530961266.31,1190,21.25,74144.3,28.19,-0.89,-3.43,0,*43
1530961267.53,1191,21.25,74142.8,28.23,-1.09,-3.47,0,*76
1530961268.76,1192,21.19,74142.8,28.23,-0.85,-3.43,0,*44
1530961269.96,1193,21.25,74142.5,28.23,-0.85,-3.35,0,*44
1530961271.14,1194,21.25,74144.3,28.23,-1.59,-4.13,0,*70
1530961272.39,1195,21.25,74146.0,28.21,-1.09,-3.51,0,*77
1530961273.56,1196,21.25,74144.3,28.23,-0.69,-3.23,0,*44
1530961274.77,1197,21.25,74146.5,28.23,-0.19,-2.67,0,*43
1530961275.93,1198,21.25,74140.8,28.27,0.01,-2.39,0,*57
1530961277.11,1199,21.19,74140.5,28.29,-0.65,-3.15,0,*48
1530961278.29,1200,21.25,74140.5,28.29,-0.37,-2.79,0,*47
1530961279.51,1201,21.25,74144.0,28.33,-1.17,-3.59,0,*7D
1530961280.74,1202,21.25,74144.3,28.31,0.13,-2.23,0,*68
1530961281.94,1203,21.25,74142.3,28.33,0.21,-2.15,0,*6F
1530961283.12,1204,21.25,74146.8,28.37,-0.03,-2.39,0,*7F
1530961284.33,1205,21.25,74146.3,28.37,-0.85,-3.27,0,*4E
1530961285.54,1206,21.25,74140.5,28.37,-2.27,-4.89,0,*74
1530961286.76,1207,21.25,74142.8,28.37,-1.87,-4.29,0,*76
1530961287.97,1208,21.25,74144.5,28.37,-0.97,-3.35,0,*43
1530961289.19,1209,21.25,74140.8,28.37,-1.33,-3.59,0,*77
1530961290.37,1210,21.25,74144.5,28.37,-0.77,-3.03,0,*41
1530961291.63,1211,21.19,74140.5,28.39,-1.35,-3.51,0,*7E
1530961292.83,1212,21.25,74144.5,28.37,-0.89,-3.23,0,*40
1530961294.06,1213,21.25,74142.0,28.37,-1.35,-3.71,0,*70
1530961295.3,1214,21.25,74142.0,28.35,-1.87,-4.09,0,*74
1530961296.49,1215,21.25,74144.8,28.37,-1.71,-4.05,0,*72
1530961297.71,1216,21.25,74144.5,28.37,-1.87,-4.13,0,*7F
1530961298.96,1217,21.25,74144.0,28.35,-1.35,-3.51,0,*74
1530961300.17,1218,21.25,74142.8,28.37,-0.89,-3.03,0,*48
1530961301.39,1219,21.25,74146.3,28.37,-1.29,-3.51,0,*75
1530961302.59,1220,21.25,74140.3,28.39,-1.63,-3.87,0,*74
1530961303.86,1221,21.25,74146.0,28.39,-2.75,-5.07,0,*7F
1530961305.12,1222,21.25,74142.0,28.39,-2.51,-4.89,0,*7D
1530961306.34,1223,21.25,74140.0,28.37,-1.33,-3.59,0,*7F
1530961307.55,1224,21.25,74142.8,28.37,-0.85,-3.03,0,*4B
1530961308.78,1225,21.25,74140.5,28.35,-1.01,-3.15,0,*72
1530961309.96,1226,21.25,74142.8,28.41,-0.57,-2.79,0,*4B
1530961311.15,1227,21.25,74142.5,28.41,-0.11,-2.23,0,*47
1530961312.34,1228,21.25,74140.3,28.41,-0.19,-2.23,0,*40
1530961313.58,1229,21.25,74142.8,28.43,-0.03,-2.11,0,*79
1530961314.76,1230,21.25,74142.3,28.45,-0.15,-2.31,0,*42
1530961315.97,1231,21.25,74142.0,28.45,-0.37,-2.51,0,*45
1530961317.18,1232,21.25,74142.5,28.45,-1.91,-4.17,0,*7F
1530961318.42,1233,21.25,74138.8,28.43,-0.57,-2.75,0,*41
1530961319.6,1234,21.25,74142.5,28.45,-0.81,-2.91,0,*41
1530961320.81,1235,21.25,74140.0,28.47,-1.21,-3.39,0,*7A
1530961322.04,1236,21.25,74142.5,28.47,-0.49,-2.47,0,*4E
1530961323.27,1237,21.25,74140.5,28.47,-0.61,-2.71,0,*40
1530961324.52,1238,21.25,74142.5,28.47,-0.23,-2.11,0,*4F
1530961325.73,1239,21.25,74140.8,28.51,-0.61,-2.35,0,*49
1530961326.93,1240,21.25,74140.8,28.51,-1.25,-3.19,0,*79
1530961328.19,1241,21.25,74142.0,28.47,-2.75,-4.77,0,*76
1530961329.4,1242,21.25,74144.3,28.47,-2.35,-4.37,0,*75
1530961330.65,1243,21.25,74144.3,28.43,-1.87,-3.91,0,*71
1530961331.86,1244,21.25,74142.5,28.45,-1.99,-3.95,0,*7B
1530961333.09,1245,21.25,74140.3,28.43,-1.63,-3.55,0,*75
1530961334.31,1246,21.25,74142.5,28.41,-0.73,-2.71,0,*43
1530961335.54,1247,21.25,74142.5,28.43,-0.15,-2.11,0,*46
1530961336.75,1248,21.25,74140.5,28.43,-0.29,-2.27,0,*43
1530961337.95,1249,21.25,74140.3,28.43,-0.29,-2.27,0,*42
1530961339.15,1250,21.25,74142.3,28.45,0.21,-1.75,0,*6D
1530961340.38,1251,21.25,74142.3,28.51,-1.09,-3.07,0,*78
1530961341.59,1252,21.25,74144.3,28.53,-0.65,-2.67,0,*45
1530961342.82,1253,21.25,74140.3,28.47,-0.61,-2.59,0,*48
1530961344.05,1254,21.25,74146.3,28.47,-0.11,-2.07,0,*43
1530961345.29,1255,21.25,74142.3,28.51,-0.45,-2.55,0,*43
1530961346.54,1256,21.25,74144.5,28.47,-1.35,-3.47,0,*73
1530961347.77,1257,21.25,74140.8,28.51,-0.97,-3.19,0,*47
1530961349.0,1258,21.25,74140.8,28.51,-0.33,-2.47,0,*4C
1530961350.23,1259,21.25,74144.3,28.51,0.05,-2.03,0,*55
1530961351.43,1260,21.25,74144.3,28.51,-2.23,-4.45,0,*70
1530961352.68,1261,21.25,74142.0,28.51,-2.11,-4.25,0,*76
1530961353.91,1262,21.25,74142.8,28.47,-0.97,-3.15,0,*4A
1530961355.14,1263,21.25,74140.0,28.51,-0.69,-2.71,0,*4E
1530961356.36,1264,21.25,74142.8,28.51,0.01,-2.03,0,*5F
1530961357.56,1265,21.25,74140.3,28.53,0.83,-1.33,0,*66
1530961358.78,1266,21.25,74142.8,28.53,0.29,-1.91,0,*6D
1530961360.0,1267,21.25,74144.3,28.53,-1.99,-4.29,0,*7D
1530961361.2,1268,21.25,74142.8,28.53,-1.51,-3.71,0,*7C
1530961362.39,1269,21.25,74142.0,28.53,-0.93,-3.15,0,*40
1530961363.6,1270,21.25,74138.5,28.53,-0.37,-2.63,0,*46
1530961364.83,1271,21.25,74140.5,28.57,0.51,-1.83,0,*63
1530961366.05,1272,21.25,74146.0,28.55,-0.15,-2.67,0,*46
1530961367.3,1273,21.25,74142.8,28.55,-1.01,-3.63,0,*76
1530961368.53,1274,21.25,74142.8,28.55,-0.03,-2.51,0,*72
1530961369.76,1275,21.25,74142.0,28.55,-0.03,-2.51,0,*73
1530961370.97,1276,21.25,74142.0,28.55,0.17,-2.27,0,*69
1530961372.18,1277,21.25,74142.8,28.57,0.63,-1.95,0,*63
1530961373.4,1278,21.25,74146.8,28.59,0.05,-2.59,0,*51
1530961374.61,1279,21.25,74142.8,28.59,-1.25,-4.09,0,*7D
1530961375.84,1280,21.25,74144.3,28.59,-2.83,-5.77,0,*7C
1530961377.04,1281,21.25,74142.5,28.55,-4.45,-7.49,0,*72
1530961378.21,1282,21.25,74140.5,28.53,-4.45,-7.49,0,*77
1530961379.45,1283,21.25,74144.8,28.47,-3.51,-6.59,0,*71
1530961380.71,1284,21.25,74142.5,28.43,-2.55,-5.77,0,*78
1530961381.91,1285,21.25,74142.8,28.41,-3.35,-6.69,0,*70
1530961383.12,1286,21.25,74142.5,28.39,-1.33,-4.29,0,*7E
1530961384.35,1287,21.25,74142.0,28.39,-0.89,-3.91,0,*4B
1530961385.55,1288,21.25,74144.8,28.39,-0.33,-3.35,0,*4B
1530961386.76,1289,21.25,74142.5,28.39,-0.15,-3.27,0,*4D
1530961387.98,1290,21.25,74140.0,28.39,0.75,-2.83,0,*61
1530961389.21,1291,21.25,74144.5,28.41,0.79,-2.67,0,*69
1530961390.45,1292,21.25,74144.5,28.41,1.63,-1.83,0,*59
1530961391.66,1293,21.25,74140.3,28.45,1.75,-1.99,0,*50
1530961392.86,1294,21.25,74140.0,28.45,2.77,-0.77,0,*67
1530961394.09,1295,21.25,74142.0,28.51,3.03,-0.29,0,*6A
1530961395.33,1296,21.25,74140.8,28.51,2.69,-0.85,0,*62
1530961396.59,1297,21.25,74146.5,28.51,2.59,-1.43,0,*5B
1530961397.86,1298,21.25,74144.8,28.55,1.21,-2.75,0,*5A
1530961399.07,1299,21.25,74142.5,28.53,0.21,-3.71,0,*69
1530961400.26,1300,21.25,74140.8,28.53,-0.19,-4.21,0,*4C
1530961401.47,1301,21.25,74140.3,28.53,0.37,-3.43,0,*6F
1530961402.7,1302,21.25,74142.8,28.55,1.43,-2.31,0,*5C
1530961403.93,1303,21.25,74142.0,28.55,2.05,-1.67,0,*5C
1530961405.12,1304,21.25,74142.0,28.57,0.33,-3.39,0,*67
1530961406.31,1305,21.25,74140.3,28.57,0.59,-3.11,0,*60
1530961407.55,1306,21.25,74140.3,28.59,1.37,-2.43,0,*52
1530961408.78,1307,21.25,74144.3,28.61,1.55,-2.27,0,*5E
1530961410.01,1308,21.25,74142.5,28.61,2.27,-1.43,0,*56
1530961411.23,1309,21.25,74144.8,28.63,2.77,-0.89,0,*67
1530961412.43,1310,21.25,74142.3,28.67,3.11,-0.45,0,*6A
1530961413.68,1311,21.25,74144.3,28.69,3.41,-0.23,0,*60
1530961414.92,1312,21.25,74142.5,28.73,3.67,-0.11,0,*6D
1530961416.12,1313,21.25,74140.3,28.75,3.79,-0.19,0,*6D
1530961417.34,1314,21.25,74142.5,28.79,4.05,0.29,0,*44
1530961418.55,1315,21.25,74142.8,28.81,3.93,-0.19,0,*64
1530961419.76,1316,21.25,74142.3,28.85,4.45,0.37,0,*4E
1530961420.93,1317,21.25,74142.0,28.87,4.33,-0.07,0,*52
1530961422.13,1318,21.25,74140.0,28.89,3.93,-0.49,0,*64
1530961423.33,1319,21.25,74144.8,28.91,5.67,1.43,0,*77
1530961424.57,1320,21.25,74140.8,28.99,5.85,1.51,0,*7A
1530961425.78,1321,21.25,74140.8,29.01,4.89,0.59,0,*4F
1530961426.98,1322,21.25,74140.3,29.01,4.31,0.05,0,*76
1530961428.18,1323,21.25,74142.8,29.03,4.33,-0.03,0,*5C
1530961429.41,1324,21.25,74146.0,29.05,1.97,-2.59,0,*5B
1530961430.62,1325,21.25,74142.5,29.05,2.35,-2.03,0,*5E
1530961431.8,1326,21.25,74140.8,29.05,3.25,-0.69,0,*63
1530961433.0,1327,21.25,74140.8,29.09,4.37,0.71,0,*4E
1530961434.25,1328,21.25,74144.3,29.11,5.05,1.67,0,*7E
1530961435.45,1329,21.25,74142.3,29.17,5.41,2.05,0,*7E
1530961436.7,1330,21.25,74142.0,29.25,4.93,1.71,0,*79
1530961437.93,1331,21.25,74140.8,29.25,4.23,1.09,0,*7C
1530961439.17,1332,21.25,74142.0,29.29,4.75,1.71,0,*7F
1530961440.42,1333,21.25,74140.3,29.33,5.85,2.81,0,*77
1530961441.68,1334,21.25,74142.0,29.41,5.93,2.81,0,*72
1530961442.9,1335,21.25,74142.3,29.43,4.71,1.67,0,*77
1530961444.1,1336,21.25,74144.3,29.47,5.11,2.17,0,*73
1530961445.32,1337,21.25,74142.5,29.51,3.75,0.75,0,*47
1530961446.51,1338,21.25,74142.0,29.55,4.07,1.43,0,*7A
1530961447.72,1339,21.25,74144.8,29.57,5.67,3.11,0,*7B
1530961448.97,1340,21.25,74144.8,29.63,5.93,3.49,0,*74
1530961450.2,1341,21.25,74142.8,29.69,6.39,4.01,0,*77
1530961451.42,1342,21.25,74142.0,29.73,5.55,3.11,0,*70
1530961452.64,1343,21.25,74144.3,29.77,5.51,3.15,0,*75
1530961453.85,1344,21.25,74144.8,29.81,5.51,3.11,0,*7F
1530961455.07,1345,21.25,74142.5,29.87,5.11,2.59,0,*71
1530961456.27,1346,21.25,74144.3,29.91,5.11,2.73,0,*7D
1530961457.52,1347,21.25,74142.0,29.93,3.97,1.55,0,*71
1530961458.74,1348,21.25,74142.8,29.97,2.95,0.51,0,*4C
1530961459.97,1349,21.25,74140.3,29.97,2.51,-0.11,0,*6C
1530961461.19,1350,21.25,74140.8,29.97,2.59,-0.03,0,*5F
1530961462.42,1351,21.25,74146.3,29.97,2.47,-0.11,0,*62
1530961463.65,1352,21.25,74142.8,29.99,3.23,0.83,0,*4A
1530961464.86,1353,21.25,74146.0,29.99,2.89,0.25,0,*46
1530961466.08,1354,21.25,74140.3,30.01,2.99,0.59,0,*42
1530961467.31,1355,21.25,74140.5,30.03,3.75,1.37,0,*7B
1530961468.53,1356,21.25,74140.0,30.05,3.63,1.13,0,*7F
1530961469.78,1357,21.25,74144.0,30.09,3.79,1.29,0,*70
1530961470.99,1358,21.25,74146.8,30.13,2.91,0.41,0,*4C
1530961472.21,1359,21.31,74150.0,30.13,3.63,1.13,0,*77
1530961473.46,1360,21.25,74146.5,30.13,2.59,-0.23,0,*6A
1530961474.67,1361,21.25,74144.3,30.15,2.47,-0.41,0,*66
1530961475.92,1362,21.25,74140.5,30.17,2.51,-0.27,0,*60
1530961477.12,1363,21.25,74140.8,30.17,4.41,1.79,0,*71
1530961478.28,1364,21.25,74142.8,30.19,5.15,2.31,0,*77
1530961479.5,1365,21.25,74146.5,30.21,4.45,1.55,0,*78
1530961480.7,1366,21.25,74144.3,30.25,5.11,2.27,0,*79
1530961481.91,1367,21.25,74146.8,30.31,5.27,2.25,0,*7A
1530961483.13,1368,21.25,74144.5,30.33,5.37,2.43,0,*76
1530961484.32,1369,21.25,74140.3,30.35,6.25,3.29,0,*7C
1530961485.55,1370,21.25,74144.0,30.39,6.61,3.71,0,*75
1530961486.75,1371,21.25,74142.5,30.43,6.21,3.19,0,*73
1530961487.95,1372,21.25,74142.8,30.47,6.29,3.19,0,*7C
1530961489.13,1373,21.25,74144.8,30.53,5.95,2.95,0,*79
1530961490.33,1374,21.25,74142.5,30.57,7.29,4.31,0,*77
1530961491.53,1375,21.25,74142.0,30.57,7.19,4.23,0,*76
1530961492.78,1376,21.25,74142.3,30.63,6.87,3.97,0,*7C
1530961493.98,1377,21.25,74140.3,30.65,6.87,3.93,0,*7F
1530961495.16,1378,21.31,74146.8,30.69,7.05,4.23,0,*7B
1530961496.36,1379,21.25,74142.8,30.73,7.23,4.45,0,*75
1530961497.55,1380,21.25,74144.3,30.79,7.05,4.27,0,*79
1530961498.8,1381,21.25,74144.8,30.83,5.85,3.49,0,*78
1530961499.99,1382,21.25,74142.0,30.85,6.75,4.23,0,*7A
1530961501.21,1383,21.25,74144.0,30.85,5.63,3.23,0,*78
1530961502.41,1384,21.25,74142.5,30.91,4.07,1.67,0,*7B
1530961503.61,1385,21.25,74140.3,30.89,4.53,2.35,0,*76
1530961504.8,1386,21.25,74144.5,30.91,4.19,2.05,0,*71
1530961506.06,1387,21.31,74146.0,30.93,5.01,2.89,0,*7E
1530961507.28,1388,21.25,74144.0,30.93,4.57,2.69,0,*7D
1530961508.47,1389,21.25,74146.0,30.95,4.41,2.69,0,*7D
1530961509.7,1390,21.25,74142.8,30.99,5.01,3.15,0,*76
1530961510.9,1391,21.25,74142.8,31.03,5.49,3.97,0,*73
1530961512.12,1392,21.25,74144.8,31.03,5.05,3.53,0,*70
1530961513.35,1393,21.25,74142.3,31.07,6.47,5.05,0,*75
1530961514.57,1394,21.25,74142.0,31.09,6.39,5.11,0,*70
1530961515.8,1395,21.25,74140.5,31.13,6.21,4.93,0,*78
1530961517.0,1396,21.25,74144.3,31.15,3.59,2.13,0,*79
1530961518.19,1397,21.25,74144.8,31.15,2.51,0.97,0,*4F
1530961519.42,1398,21.25,74144.0,31.13,1.29,-0.33,0,*69
1530961520.63,1399,21.25,74140.3,31.11,2.69,1.43,0,*76
1530961521.84,1400,21.25,74146.0,31.11,2.21,0.91,0,*43
1530961523.06,1401,21.25,74144.3,31.11,2.47,1.13,0,*79
1530961524.25,1402,21.25,74146.0,31.11,4.19,3.07,0,*70
1530961525.42,1403,21.25,74144.0,31.11,4.33,2.99,0,*7F
1530961526.64,1404,21.25,74146.3,31.09,2.55,1.01,0,*75
1530961527.86,1405,21.25,74144.3,31.09,1.71,-0.11,0,*6C
1530961529.07,1406,21.25,74144.3,31.07,-1.83,-3.95,0,*7E
1530961530.25,1407,21.25,74144.5,30.99,-0.77,-2.87,0,*41
1530961531.5,1408,21.25,74146.3,30.93,0.79,-1.35,0,*6D
1530961532.72,1409,21.25,74146.0,30.93,1.59,-0.61,0,*6F
1530961533.94,1410,21.31,74144.8,30.91,0.51,-1.87,0,*65
1530961535.15,1411,21.25,74144.8,30.87,-1.29,-3.71,0,*7B
1530961536.34,1412,21.25,74146.5,30.81,0.21,-2.39,0,*67
1530961537.52,1413,21.25,74144.8,30.81,1.01,-1.75,0,*5E
1530961538.73,1414,21.31,74144.0,30.77,-1.47,-4.49,0,*75
1530961539.99,1415,21.25,74142.5,30.67,-2.07,-4.89,0,*7E
1530961541.23,1416,21.25,74142.3,30.65,-1.01,-4.01,0,*7A
1530961542.46,1417,21.25,74142.3,30.59,-0.45,-3.59,0,*4F
1530961543.69,1418,21.25,74142.3,30.55,-0.19,-3.63,0,*4C
1530961544.92,1419,21.25,74146.0,30.47,-2.47,-5.93,0,*7E
1530961546.14,1420,21.25,74144.3,30.43,-1.05,-4.57,0,*7C
1530961547.33,1421,21.25,74142.8,30.39,-3.11,-6.89,0,*76
1530961548.52,1422,21.31,74146.0,30.31,-2.87,-6.59,0,*7E
1530961549.79,1423,21.25,74142.3,30.25,-2.07,-5.89,0,*7C
1530961551.02,1424,21.31,74144.8,30.19,-2.07,-5.73,0,*71
1530961552.22,1425,21.31,74146.5,30.15,-1.09,-4.49,0,*79
1530961553.46,1426,21.31,74146.5,30.11,-1.01,-4.81,0,*72
1530961554.67,1427,21.25,74142.5,30.05,-2.31,-6.39,0,*77
1530961555.91,1428,21.25,74142.3,30.01,-1.01,-4.99,0,*74
1530961557.17,1429,21.31,74144.8,29.97,-1.05,-5.11,0,*77
1530961558.39,1430,21.25,74140.5,29.93,-0.11,-4.21,0,*4D
1530961559.65,1431,21.25,74144.0,29.93,-0.85,-5.31,0,*41
1530961560.88,1432,21.31,74144.0,29.87,-0.61,-5.03,0,*4C
1530961562.08,1433,21.25,74144.0,29.85,-0.53,-4.89,0,*4D
1530961563.28,1434,21.25,74142.8,29.81,-3.79,-8.37,0,*7C
1530961564.48,1435,21.25,74144.3,29.73,-3.79,-8.37,0,*70
1530961565.69,1436,21.25,74142.8,29.69,-3.71,-8.21,0,*77
1530961566.93,1437,21.31,74146.0,29.63,-3.07,-7.57,0,*73
1530961568.16,1438,21.25,74144.3,29.59,-2.43,-6.93,0,*7D
1530961569.36,1439,21.31,74144.8,29.55,-0.53,-4.73,0,*4F
1530961570.57,1440,21.31,74146.5,29.53,0.33,-3.83,0,*64
1530961571.77,1441,21.31,74144.8,29.55,0.79,-3.27,0,*63
1530961573.01,1442,21.31,74146.0,29.55,-1.43,-5.65,0,*75
1530961574.23,1443,21.31,74146.5,29.53,0.95,-2.99,0,*61
1530961575.44,1444,21.25,74140.3,29.57,0.83,-2.95,0,*69
1530961576.64,1445,21.25,74146.5,29.55,0.33,-3.55,0,*6C
1530961577.88,1446,21.31,74146.5,29.53,-1.29,-5.11,0,*78
1530961579.15,1447,21.25,74144.3,29.49,-1.99,-5.61,0,*7E
1530961580.37,1448,21.31,74146.8,29.49,-2.19,-5.73,0,*79
1530961581.61,1449,21.25,74142.5,29.47,-1.91,-5.31,0,*73
1530961582.83,1450,21.31,74144.8,29.45,-1.51,-4.81,0,*7F
1530961584.04,1451,21.31,74146.0,29.45,-2.43,-5.51,0,*72
1530961585.25,1452,21.31,74144.0,29.41,-2.99,-6.09,0,*7C
1530961586.46,1453,21.31,74144.8,29.35,-3.95,-7.05,0,*7E
1530961587.7,1454,21.31,74144.3,29.33,-4.33,-7.35,0,*77
1530961588.9,1455,21.31,74144.0,29.27,-4.37,-7.35,0,*77
1530961590.11,1456,21.31,74146.5,29.25,-2.99,-6.09,0,*7A
1530961591.35,1457,21.31,74144.8,29.23,-1.43,-4.37,0,*76
1530961592.58,1458,21.31,74144.0,29.21,-2.59,-5.73,0,*72
1530961593.8,1459,21.25,74142.5,29.19,-3.31,-6.31,0,*72
1530961595.02,1460,21.31,74144.8,29.13,-3.19,-6.19,0,*72
1530961596.24,1461,21.31,74142.8,29.09,-2.19,-5.27,0,*77
1530961597.43,1462,21.31,74146.0,29.09,-2.43,-5.51,0,*7A
1530961598.65,1463,21.25,74140.8,29.05,-3.35,-5.93,0,*79
1530961599.85,1464,21.25,74142.8,29.05,-0.93,-3.19,0,*45
1530961601.06,1465,21.31,74146.5,29.05,0.25,-1.95,0,*62
1530961602.3,1466,21.31,74144.8,29.07,1.29,-1.21,0,*51
1530961603.53,1467,21.25,74140.0,29.07,-0.29,-2.67,0,*4D
1530961604.77,1468,21.31,74146.3,29.07,-2.03,-4.33,0,*7F
1530961606.01,1469,21.31,74144.0,29.05,-3.67,-5.89,0,*7F
1530961607.21,1470,21.31,74144.0,29.01,-1.75,-3.63,0,*70
1530961608.4,1471,21.31,74144.5,29.01,-0.57,-2.39,0,*4E
1530961609.62,1472,21.31,74142.8,28.99,-2.31,-4.25,0,*74
1530961610.84,1473,21.31,74142.0,28.97,-0.23,-1.95,0,*44
1530961612.07,1474,21.31,74146.3,28.99,0.87,-0.81,0,*5A
1530961613.29,1475,21.25,74140.5,28.99,1.51,-0.29,0,*63
1530961614.53,1476,21.25,74140.8,29.03,1.09,-0.49,0,*69
1530961615.77,1477,21.31,74144.0,29.03,0.59,-0.97,0,*5F
1530961617.02,1478,21.31,74144.3,29.03,2.09,0.59,0,*48
1530961618.22,1479,21.31,74142.3,29.07,1.05,-0.07,0,*54
1530961619.43,1480,21.31,74146.0,29.07,2.27,1.89,0,*7B
1530961620.68,1481,21.31,74144.8,29.11,2.21,0.59,0,*47
1530961621.89,1482,21.31,74144.0,29.09,0.59,-2.31,0,*61
1530961623.11,1483,21.31,74142.3,29.09,0.29,-1.91,0,*6E
1530961624.33,1484,21.31,74144.8,29.09,1.55,-0.45,0,*6B
1530961625.56,1485,21.31,74142.5,29.11,2.91,1.33,0,*75
1530961626.78,1486,21.31,74144.8,29.13,2.09,0.51,0,*40
1530961628.0,1487,21.31,74144.5,29.17,3.33,2.01,0,*7A
1530961629.23,1488,21.31,74146.3,29.21,3.15,2.01,0,*74
1530961630.48,1489,21.31,74146.5,29.25,2.43,0.75,0,*42
1530961631.73,1490,21.31,74142.3,29.25,3.19,2.05,0,*71
1530961632.96,1491,21.31,74146.5,29.29,2.65,1.55,0,*70
1530961634.18,1492,21.31,74142.3,29.31,1.85,0.41,0,*43
1530961635.41,1493,21.31,74142.3,29.31,1.85,0.51,0,*43
1530961636.66,1494,21.31,74144.0,29.33,1.29,-0.23,0,*68
1530961637.92,1495,21.31,74144.3,29.33,-0.93,-2.67,0,*46
1530961639.15,1496,21.31,74146.0,29.33,-1.91,-4.09,0,*78
1530961640.39,1497,21.31,74144.8,29.27,-2.71,-5.11,0,*79
1530961641.62,1498,21.31,74140.8,29.23,-1.95,-4.41,0,*7F
1530961642.81,1499,21.31,74142.8,29.21,-0.77,-3.27,0,*46
1530961644.02,1500,21.31,74144.0,29.19,-1.79,-4.49,0,*7C
1530961645.26,1501,21.31,74144.3,29.13,-2.11,-5.03,0,*75
1530961646.51,1502,21.31,74146.0,29.09,-2.03,-4.81,0,*75
1530961647.76,1503,21.31,74142.5,29.09,-1.99,-4.85,0,*70
1530961649.0,1504,21.31,74144.8,29.03,-1.13,-4.05,0,*77
1530961650.22,1505,21.31,74146.3,29.03,-0.61,-3.59,0,*4C
1530961651.43,1506,21.31,74144.5,29.01,-0.93,-4.17,0,*4D
1530961652.61,1507,21.31,74144.3,28.97,-2.15,-5.35,0,*7F
1530961653.88,1508,21.31,74144.3,28.95,-2.11,-5.03,0,*73
1530961655.12,1509,21.25,74140.3,28.89,-1.47,-4.57,0,*7F
1530961656.35,1510,21.31,74144.5,28.87,-2.07,-5.11,0,*7D
1530961657.56,1511,21.31,74144.8,28.83,-2.83,-5.81,0,*7D
1530961658.75,1512,21.31,74144.0,28.79,-4.05,-7.19,0,*70
1530961659.95,1513,21.31,74144.8,28.79,-4.45,-7.43,0,*7A
1530961661.21,1514,21.31,74144.0,28.73,-4.81,-8.07,0,*70
1530961662.45,1515,21.31,74144.5,28.67,-4.01,-6.97,0,*7B
1530961663.69,1516,21.31,74142.0,28.61,-4.33,-7.31,0,*72
1530961664.9,1517,21.25,74140.0,28.57,-2.99,-5.93,0,*7A
1530961666.11,1518,21.31,74144.0,28.57,-3.63,-6.77,0,*78
1530961667.32,1519,21.31,74146.3,28.53,-3.15,-6.27,0,*79
1530961668.55,1520,21.31,74146.5,28.47,-2.59,-5.47,0,*7A
1530961669.81,1521,21.31,74142.5,28.47,-2.75,-5.61,0,*71
1530961671.08,1522,21.31,74140.8,28.47,-2.07,-4.89,0,*70
1530961672.29,1523,21.31,74148.3,28.45,-2.51,-5.39,0,*7A
1530961673.53,1524,21.31,74146.5,28.41,-1.95,-4.77,0,*79
1530961674.76,1525,21.31,74144.3,28.47,-0.15,-2.63,0,*44
1530961675.95,1526,21.31,74140.8,28.45,0.37,-2.19,0,*65
1530961677.15,1527,21.31,74146.3,28.45,0.05,-2.55,0,*5D
1530961678.4,1528,21.31,74144.0,28.47,0.13,-2.51,0,*63
1530961679.66,1529,21.31,74146.5,28.51,-0.23,-2.71,0,*49
1530961680.91,1530,21.31,74144.0,28.55,0.79,-1.87,0,*6D
1530961682.16,1531,21.31,74144.8,28.55,0.59,-1.99,0,*61
1530961683.39,1532,21.31,74144.3,28.57,1.33,-1.09,0,*54
1530961684.61,1533,21.31,74146.0,28.59,1.63,-0.69,0,*69
1530961685.84,1534,21.31,74146.8,28.63,1.37,-0.85,0,*64
1530961687.05,1535,21.31,74144.5,28.63,1.55,-0.73,0,*68
1530961688.27,1536,21.31,74144.3,28.67,0.95,-1.13,0,*65
1530961689.49,1537,21.31,74146.5,28.73,1.43,-0.77,0,*68
1530961690.74,1538,21.31,74144.0,28.77,1.09,-1.13,0,*5E
1530961691.94,1539,21.31,74140.5,28.79,1.09,-0.69,0,*6D
1530961693.15,1540,21.31,74146.5,28.81,1.79,-0.19,0,*64
1530961694.35,1541,21.31,74146.5,28.83,2.65,0.71,0,*4A
1530961695.56,1542,21.31,74142.0,28.89,2.89,0.97,0,*49
1530961696.78,1543,21.31,74144.0,28.91,0.51,-1.91,0,*6C
1530961697.95,1544,21.31,74140.8,28.91,-0.37,-2.43,0,*4A
1530961699.19,1545,21.31,74140.5,28.95,1.37,-0.45,0,*67
1530961700.44,1546,21.31,74142.3,28.99,1.47,-0.23,0,*6F
1530961701.68,1547,21.31,74144.8,29.03,2.89,1.25,0,*77
1530961702.94,1548,21.31,74144.3,29.07,3.41,1.85,0,*73
1530961704.19,1549,21.31,74146.3,29.11,2.43,0.63,0,*4F
1530961705.39,1550,21.31,74144.5,29.17,1.75,0.21,0,*41
1530961706.61,1551,21.31,74144.0,29.19,1.51,-0.07,0,*51
1530961707.82,1552,21.31,74144.0,29.21,1.59,0.13,0,*49
1530961709.06,1553,21.31,74146.3,29.25,1.13,-0.49,0,*60
1530961710.3,1554,21.31,74146.5,29.23,0.25,-1.13,0,*6B
1530961711.5,1555,21.31,74144.8,29.27,1.67,0.43,0,*40
1530961712.75,1556,21.31,74142.3,29.29,2.17,1.09,0,*76
1530961713.98,1557,21.31,74144.0,29.33,1.75,0.63,0,*46
1530961715.2,1558,21.31,74146.0,29.35,1.55,0.63,0,*4D
1530961716.44,1559,21.31,74144.5,29.37,1.67,0.75,0,*48
1530961717.68,1560,21.31,74144.5,29.41,0.59,-0.23,0,*51
1530961718.88,1561,21.31,74144.8,29.43,0.55,-0.11,0,*5F
1530961720.07,1562,21.31,74142.0,29.43,0.21,-0.33,0,*5F